Date String (YYYY-MM-DD hh:mm:ss) UTC,Instrument flags,Ambient pressure (hPa),Sample flow (lpm),Bypass flow (lpm),Sample temperature (°C),Ambient temperature (°C),ASC tube jacket temperature (°C),LED temperature (°C),Box temperature (°C),Sample RH (%),Span deviation,Mass concentration (μg/m³),Mass concentration (μg/m³),Mass concentration (μg/m³)
DateTimeUTC,F1_M11,P_M11,Q1_M11,Q2_M11,T1_M11,T2_M11,T3_M11,T4_M11,T5_M11,U1_M11,ZSPAN_M11,X2_M11,X0_M11,X1_M11
2022-01-06 10:00:00,,0825.5,5.00,0.00,22.0,22.8,00.0,30.9,23.8,04.1,0001.1,0005.22,0009.73,0004.47
2022-01-06 10:01:00,,0825.4,5.01,0.00,22.0,22.3,00.0,30.9,23.8,04.1,0001.3,0005.17,0009.63,0004.45
2022-01-06 10:02:00,,0825.4,4.99,0.00,21.9,21.6,00.0,30.9,23.5,04.1,0001.6,0005.13,0009.52,0004.43
2022-01-06 10:03:00,,0825.4,5.00,0.00,21.8,21.0,00.0,30.9,23.3,04.1,0001.3,0005.08,0009.41,0004.40
2022-01-06 10:04:00,,0825.4,5.01,0.00,21.7,20.5,00.0,30.8,23.1,04.2,0001.6,0005.03,0009.22,0004.39
2022-01-06 10:05:00,,0825.3,5.01,0.00,21.6,20.2,00.0,30.8,23.0,04.2,0001.6,0005.02,0009.13,0004.39
2022-01-06 10:06:00,,0825.3,4.99,0.00,21.5,20.4,00.0,30.8,22.9,04.2,0001.3,0005.04,0009.21,0004.38
2022-01-06 10:07:00,,0825.3,5.00,0.00,21.6,21.4,00.0,30.8,23.2,04.2,0001.5,0005.02,0009.17,0004.37
2022-01-06 10:08:00,,0825.4,5.01,0.00,21.8,22.3,00.0,30.8,23.5,04.2,0001.8,0004.97,0009.07,0004.36
2022-01-06 10:09:00,,0825.5,5.00,0.00,21.9,22.8,00.0,30.9,23.8,04.1,0002.0,0004.94,0008.82,0004.35
2022-01-06 10:10:00,,0825.4,5.01,0.00,22.0,22.4,00.0,30.9,23.8,04.1,0002.4,0004.93,0008.47,0004.35
2022-01-06 10:11:00,,0825.3,4.99,0.00,21.9,21.7,00.0,30.9,23.6,04.1,0002.8,0004.92,0008.43,0004.35
2022-01-06 10:12:00,,0825.3,5.00,0.00,21.8,21.2,00.0,30.8,23.4,04.1,0002.5,0004.94,0008.50,0004.36
2022-01-06 10:13:00,,0825.4,5.00,0.00,21.7,20.8,00.0,30.8,23.2,04.2,0002.4,0004.96,0008.73,0004.37
2022-01-06 10:14:00,,0825.5,5.02,0.00,21.7,20.5,00.0,30.8,23.1,04.2,0002.4,0004.96,0008.75,0004.38
2022-01-06 10:15:00,,0825.4,4.98,0.00,21.6,20.4,00.0,30.7,23.1,04.2,0002.4,0004.99,0008.82,0004.37
2022-01-06 10:16:00,,0825.3,5.00,0.00,21.6,21.1,00.0,30.8,23.2,04.2,0002.6,0005.00,0008.86,0004.38
2022-01-06 10:17:00,,0825.3,5.01,0.00,21.8,22.0,00.0,30.8,23.5,04.2,0002.9,0005.02,0008.83,0004.39
2022-01-06 10:18:00,,0825.3,5.00,0.00,21.9,22.8,00.0,30.8,23.8,04.1,0002.9,0005.05,0008.87,0004.40
2022-01-06 10:19:00,,0825.4,5.00,0.00,22.0,22.8,00.0,30.9,23.9,04.1,0002.6,0005.08,0008.97,0004.41
2022-01-06 10:20:00,,0825.4,5.01,0.00,22.0,22.2,00.0,30.9,23.8,04.1,0002.0,0005.08,0009.03,0004.42
2022-01-06 10:21:00,,0825.3,4.99,0.00,22.0,21.7,00.0,30.9,23.6,04.1,0001.8,0005.05,0008.96,0004.42
2022-01-06 10:22:00,,0825.3,5.01,0.00,21.9,21.3,00.0,30.9,23.5,04.1,0001.4,0005.06,0008.98,0004.42
2022-01-06 10:23:00,,0825.3,4.99,0.00,21.8,20.9,00.0,30.8,23.3,04.1,0001.1,0005.09,0009.06,0004.41
2022-01-06 10:24:00,,0825.3,5.01,0.00,21.8,20.6,00.0,30.8,23.2,04.2,0001.1,0005.11,0009.01,0004.39
2022-01-06 10:25:00,,0825.3,5.00,0.00,21.7,20.4,00.0,30.8,23.1,04.2,0001.0,0005.08,0008.86,0004.38
2022-01-06 10:26:00,,0825.3,4.99,0.00,21.6,20.5,00.0,30.8,23.1,04.2,0001.1,0005.11,0008.92,0004.38
2022-01-06 10:27:00,,0825.3,5.00,0.00,21.7,21.4,00.0,30.8,23.3,04.2,0001.3,0005.09,0008.92,0004.38
2022-01-06 10:28:00,,0825.4,5.01,0.00,21.9,22.3,00.0,30.8,23.6,04.1,0001.5,0005.07,0008.97,0004.37
2022-01-06 10:29:00,,0825.4,5.00,0.00,22.0,23.0,00.0,30.9,23.9,04.1,0001.7,0005.08,0009.13,0004.37
2022-01-06 10:30:00,,0825.4,5.00,0.00,22.1,22.8,00.0,30.9,23.9,04.1,0002.2,0005.07,0009.78,0004.37
2022-01-06 10:31:00,,0825.5,5.01,0.00,22.1,22.2,00.0,30.9,23.8,04.1,0002.4,0005.07,0009.82,0004.38
2022-01-06 10:32:00,,0825.5,5.00,0.00,22.0,21.6,00.0,30.9,23.6,04.1,0002.2,0005.09,0009.79,0004.39
2022-01-06 10:33:00,,0825.3,5.00,0.00,21.9,21.2,00.0,30.9,23.5,04.1,0002.0,0005.13,0009.90,0004.39
2022-01-06 10:34:00,,0825.3,4.98,0.00,21.9,20.8,00.0,30.9,23.3,04.1,0002.0,0005.10,0009.80,0004.38
2022-01-06 10:35:00,,0825.2,5.00,0.00,21.8,20.5,00.0,30.8,23.2,04.1,0002.1,0005.04,0009.67,0004.38
2022-01-06 10:36:00,,0825.3,5.01,0.00,21.7,20.4,00.0,30.8,23.1,04.2,0001.8,0005.08,0009.74,0004.42
2022-01-06 10:37:00,,0825.3,5.00,0.00,21.7,21.2,00.0,30.8,23.3,04.2,0002.0,0005.06,0009.80,0004.42
2022-01-06 10:38:00,,0825.4,4.98,0.00,21.9,22.2,00.0,30.9,23.6,04.1,0001.6,0005.05,0010.11,0004.44
2022-01-06 10:39:00,,0825.3,5.00,0.00,22.0,22.7,00.0,30.9,23.8,04.1,0000.9,0005.08,0010.07,0004.45
2022-01-06 10:40:00,,0825.4,5.01,0.00,22.0,22.3,00.0,30.9,23.8,04.1,0001.2,0005.12,0010.07,0004.47
2022-01-06 10:41:00,,0825.4,5.00,0.00,22.0,21.9,00.0,30.9,23.7,04.1,0000.9,0005.12,0009.51,0004.47
2022-01-06 10:42:00,,0825.5,5.00,0.00,22.0,21.5,00.0,30.9,23.6,04.1,0001.1,0005.13,0009.29,0004.47
2022-01-06 10:43:00,,0825.4,5.00,0.00,21.9,21.2,00.0,30.9,23.5,04.1,0001.1,0005.14,0009.32,0004.47
2022-01-06 10:44:00,,0825.4,5.00,0.00,21.8,20.9,00.0,30.9,23.4,04.1,0000.9,0005.11,0009.27,0004.48
2022-01-06 10:45:00,,0825.4,5.01,0.00,21.8,20.7,00.0,30.8,23.3,04.1,0001.2,0005.12,0009.42,0004.48
2022-01-06 10:46:00,,0825.4,4.99,0.00,21.7,20.6,00.0,30.8,23.2,04.1,0001.2,0005.15,0009.86,0004.49
2022-01-06 10:47:00,,0825.4,5.00,0.00,21.8,21.3,00.0,30.8,23.4,04.1,0001.7,0005.13,0009.82,0004.47
2022-01-06 10:48:00,,0825.4,4.99,0.00,21.9,22.1,00.0,30.9,23.7,04.1,0002.0,0005.12,0009.87,0004.45
2022-01-06 10:49:00,,0825.5,5.00,0.00,22.1,22.7,00.0,30.9,23.9,04.1,0002.0,0005.13,0009.53,0004.43
2022-01-06 10:50:00,,0825.5,5.00,0.00,22.1,22.4,00.0,30.9,23.9,04.1,0002.3,0005.12,0009.41,0004.42
2022-01-06 10:51:00,,0825.5,4.99,0.00,22.1,22.0,00.0,30.9,23.8,04.1,0001.9,0005.11,0009.40,0004.41
2022-01-06 10:52:00,,0825.5,5.02,0.00,22.0,21.5,00.0,30.9,23.7,04.1,0001.6,0005.12,0009.49,0004.41
2022-01-06 10:53:00,,0825.5,4.98,0.00,22.0,21.2,00.0,30.9,23.5,04.1,0001.4,0005.13,0009.53,0004.41
2022-01-06 10:54:00,,0825.5,5.00,0.00,21.9,20.9,00.0,30.9,23.4,04.1,0001.4,0005.15,0009.54,0004.43
2022-01-06 10:55:00,,0825.6,4.99,0.00,21.8,20.7,00.0,30.9,23.3,04.1,0001.5,0005.15,0009.52,0004.43
2022-01-06 10:56:00,,0825.6,5.01,0.00,21.8,20.8,00.0,30.8,23.3,04.1,0001.4,0005.14,0009.33,0004.43
2022-01-06 10:57:00,,0825.5,4.99,0.00,21.9,21.7,00.0,30.9,23.6,04.1,0001.3,0005.12,0008.94,0004.43
2022-01-06 10:58:00,,0825.4,5.01,0.00,22.0,22.6,00.0,30.9,23.9,04.1,0000.9,0005.14,0008.95,0004.45
2022-01-06 10:59:00,,0825.5,4.99,0.00,22.2,23.1,00.0,31.0,24.1,04.1,0000.8,0005.16,0008.97,0004.47
